Simultaneous Nadir Overpasses (SNOs) Predictions

Prediction of SNOs between GOES-16 and METOP-B Satellite Orbit:

Table of predicted SNOs for the next 14.0 days since TLE Epoch: 10/29/2022
Index Date Time (GOES-16) GOES-16 Lat,Lon METOP-B Lat,Lon Distance(km) Time Diff (sec)
1 10/29/2022 14:23:44 -0.06, -75.20 -0.54, -73.16 233.39 80
2 10/31/2022 02:42:44 0.06, -75.19 -0.52, -77.74 291.06 80
3 11/01/2022 02:19:25 0.05, -75.19 0.58, -72.75 278.46 80
4 11/02/2022 14:38:17 -0.05, -75.21 0.43, -77.31 239.13 80
5 11/03/2022 14:20:18 -0.05, -75.22 -0.72, -72.32 330.98 80
6 11/05/2022 02:39:19 0.05, -75.23 -0.32, -76.91 191.78 80
7 11/06/2022 02:15:59 0.05, -75.24 0.78, -71.91 378.81 80
8 11/07/2022 14:37:32 -0.05, -75.27 0.22, -76.48 137.28 80
9 11/08/2022 14:14:12 -0.04, -75.29 -0.88, -71.48 433.67 80
10 11/10/2022 02:35:52 0.04, -75.30 -0.15, -76.07 87.96 80
11 11/11/2022 02:12:34 0.04, -75.32 1.01, -71.09 483.23 80
